Home   Weather   Aberdeen   Past weeks

Flag for United Kingdom Past Weather in Aberdeen, Scotland, United Kingdom — Yesterday and Last 2 Weeks

45 °F

Passing clouds.

Feels Like: 45 °F
Forecast: 40 / 51 °F
Wind: 2 mph from North

Location: Aberdeen / Dyce

Current Time: Oct 24, 2016 at 9:15:12 PM

Latest Report: Oct 24, 2016 at 8:20 PM

Visibility: N/A

Pressure: 30.12 "Hg

Humidity: 93%

Dew Point: 43 °F

Location of AberdeenLocation

Past Weather in Aberdeen — Graph


Aberdeen Temperature Yesterday

Maximum temperature yesterday: 48 °F (at 1:50 PM)
Minimum temperature yesterday: 41 °F (at 2:20 AM)
Average temperature yesterday: 44 °F

High & Low Weather Summary for the Past Weeks

High55 °F (Oct 17, 1:20 PM)100% (Oct 9, 11:50 PM)30.48 "Hg (Oct 9, 11:50 PM)
Low37 °F (Oct 9, 11:50 PM)67% (Oct 10, 12:50 PM)29.71 "Hg (Oct 15, 4:20 PM)
Average49 °F88%30.12 "Hg
* Reported Oct 9 7:20 PM — Oct 24 7:50 PM, Aberdeen, Weather by CustomWeather, © 2016

Note: Actual official high and low records may vary slightly from our data, if they occured in-between our weather recording intervals... More about our weather records


Aberdeen Weather History for the Previous 24 Hours

Scroll right to see more
Time TempWeatherWind HumidityBarometerVisibility
7:50 PM
Mon, Oct 24
45 °FPassing clouds.6 mph93%30.12 "HgN/A
7:20 PM45 °FPassing clouds.7 mph93%30.12 "HgN/A
6:50 PM45 °FPassing clouds.7 mph93%30.12 "HgN/A
6:20 PM45 °FPassing clouds.8 mph93%30.12 "HgN/A
5:50 PM46 °FPassing clouds.8 mph93%30.09 "HgN/A
5:20 PM48 °FBroken clouds.8 mph82%30.09 "HgN/A
4:50 PM48 °FPartly sunny.8 mph82%30.09 "HgN/A
4:20 PM50 °FScattered showers. Scattered clouds.8 mph82%30.09 "HgN/A
3:50 PM48 °FScattered clouds.3 mph87%30.09 "HgN/A
3:20 PM48 °FScattered clouds.3 mph87%30.09 "HgN/A
2:50 PM48 °FSprinkles. Scattered clouds.3 mph87%30.09 "HgN/A
2:20 PM50 °FScattered clouds.6 mph76%30.09 "HgN/A
1:50 PM50 °FScattered clouds.6 mph76%30.09 "HgN/A
1:20 PM48 °FScattered clouds.6 mph87%30.09 "HgN/A
12:50 PM46 °FScattered showers. Scattered clouds.6 mph87%30.09 "HgN/A
12:20 PM46 °FScattered showers. Scattered clouds.7 mph87%30.09 "HgN/A
11:50 AM46 °FScattered showers. Scattered clouds.6 mph87%30.09 "HgN/A
11:20 AM46 °FScattered clouds.8 mph87%30.09 "HgN/A
10:50 AM45 °FScattered clouds.9 mph87%30.12 "HgN/A
10:20 AM45 °FScattered clouds.9 mph87%30.12 "HgN/A
9:50 AM43 °FScattered clouds.8 mph87%30.12 "HgN/A
9:20 AM41 °FScattered showers. Scattered clouds.7 mph93%30.12 "HgN/A
8:50 AM41 °FScattered clouds.7 mph93%30.12 "HgN/A
8:20 AM41 °FScattered clouds.6 mph93%30.09 "HgN/A
7:50 AM41 °FPassing clouds.5 mph93%30.09 "HgN/A
7:20 AM41 °FScattered showers. Partly cloudy.6 mph93%30.09 "HgN/A
6:50 AM41 °FScattered showers. Passing clouds.6 mph93%30.09 "HgN/A
6:20 AM41 °FSprinkles. Passing clouds.3 mph100%30.09 "Hg6 mi
5:50 AM41 °FPassing clouds.5 mph93%30.09 "HgN/A
5:20 AM41 °FPassing clouds.3 mph93%30.09 "HgN/A
4:50 AM41 °FPassing clouds.5 mph93%30.09 "HgN/A
4:20 AM41 °FPassing clouds.2 mph93%30.09 "HgN/A
3:50 AM41 °FPassing clouds.2 mph93%30.09 "HgN/A
3:20 AM41 °FPassing clouds.2 mph93%30.09 "HgN/A
2:50 AM41 °FPartly cloudy.5 mph93%30.09 "HgN/A
2:20 AM39 °FPassing clouds.3 mph100%30.09 "HgN/A
1:50 AM41 °FPassing clouds.5 mph93%30.09 "HgN/A
1:20 AM43 °FPassing clouds.6 mph93%30.09 "HgN/A
12:50 AM43 °FPassing clouds.5 mph93%30.12 "HgN/A
12:20 AM43 °FLight rain. Partly cloudy.5 mph93%30.12 "Hg4 mi
11:50 PM
Sun, Oct 23
43 °FSprinkles. Passing clouds.3 mph93%30.12 "HgN/A
11:20 PM43 °FPassing clouds.2 mph93%30.12 "HgN/A
10:50 PM43 °FPassing clouds.2 mph93%30.12 "HgN/A
10:20 PM41 °FPassing clouds.3 mph93%30.09 "HgN/A
9:50 PM41 °FPassing clouds.3 mph93%30.09 "HgN/A
9:20 PM43 °FPassing clouds.5 mph93%30.09 "HgN/A
Weather by CustomWeather, © 2016

See weather overviewHow to use our weather pages